contact:dominique.lefevre@mio.osupytheas.fr, maurice.libes@osupytheas.fr, didier.mallarino@osupytheas.fr
Project:EMSO http://www.emso-fr.org/EMSO-France
Depth: 2436.0 m
Title:EMSO Ligure Ouest : Data MII capteur MICROCAT
DateTime_Computer,Latitude,Longitude,Temperature,Conductivity,Pressure,DateTime_Instrument
DateTime_Computer,Latitude,Longitude,degC,S m-1,dbar,DateTime_Instrument
2022-08-19T00:02:33Z,42.805,6.029,13.3046,4.60079,2470.624,2022-8-19T02:04:23Z
2022-08-19T00:05:36Z,42.805,6.029,13.3055,4.60077,2470.637,2022-8-19T02:07:26Z
2022-08-19T00:08:40Z,42.805,6.029,13.3051,4.60069,2470.614,2022-8-19T02:10:29Z
2022-08-19T00:11:43Z,42.805,6.029,13.3067,4.60074,2470.6,2022-8-19T02:13:32Z
2022-08-19T00:14:46Z,42.805,6.029,13.3058,4.60081,2470.624,2022-8-19T02:16:35Z
2022-08-19T00:17:49Z,42.805,6.029,13.3062,4.60073,2470.637,2022-8-19T02:19:39Z
2022-08-19T00:20:52Z,42.805,6.029,13.3052,4.60087,2470.624,2022-8-19T02:22:42Z
2022-08-19T00:23:55Z,42.805,6.029,13.3054,4.60079,2470.646,2022-8-19T02:25:45Z
2022-08-19T00:26:58Z,42.805,6.029,13.3044,4.60073,2470.6,2022-8-19T02:28:48Z
2022-08-19T00:30:01Z,42.805,6.029,13.3049,4.60091,2470.6,2022-8-19T02:31:51Z
2022-08-19T00:33:04Z,42.805,6.029,13.3054,4.60085,2470.614,2022-8-19T02:34:54Z
2022-08-19T00:36:08Z,42.805,6.029,13.3054,4.60073,2470.614,2022-8-19T02:37:57Z
2022-08-19T00:39:11Z,42.805,6.029,13.3048,4.60079,2470.637,2022-8-19T02:41:00Z
2022-08-19T00:42:14Z,42.805,6.029,13.3050,4.60079,2470.661,2022-8-19T02:44:03Z
2022-08-19T00:45:17Z,42.805,6.029,13.3054,4.60077,2470.637,2022-8-19T02:47:07Z
2022-08-19T00:48:20Z,42.805,6.029,13.3055,4.60072,2470.614,2022-8-19T02:50:10Z
2022-08-19T00:51:23Z,42.805,6.029,13.3048,4.60084,2470.6,2022-8-19T02:53:13Z
2022-08-19T00:54:26Z,42.805,6.029,13.3067,4.60089,2470.637,2022-8-19T02:56:16Z
2022-08-19T00:57:29Z,42.805,6.029,13.3067,4.60071,2470.577,2022-8-19T02:59:19Z
2022-08-19T01:00:33Z,42.805,6.029,13.3060,4.60069,2470.624,2022-8-19T03:02:22Z
2022-08-19T01:03:36Z,42.805,6.029,13.3063,4.60085,2470.614,2022-8-19T03:05:25Z
2022-08-19T01:06:39Z,42.805,6.029,13.3045,4.60076,2470.614,2022-8-19T03:08:28Z
2022-08-19T01:09:42Z,42.805,6.029,13.3058,4.60079,2470.6,2022-8-19T03:11:32Z
2022-08-19T01:12:45Z,42.805,6.029,13.3067,4.60094,2470.637,2022-8-19T03:14:35Z
2022-08-19T01:15:48Z,42.805,6.029,13.3061,4.60075,2470.624,2022-8-19T03:17:38Z
2022-08-19T01:18:51Z,42.805,6.029,13.3058,4.60084,2470.6,2022-8-19T03:20:41Z
2022-08-19T01:21:54Z,42.805,6.029,13.3056,4.60081,2470.6,2022-8-19T03:23:44Z
2022-08-19T01:24:58Z,42.805,6.029,13.3046,4.60079,2470.591,2022-8-19T03:26:47Z
2022-08-19T01:28:01Z,42.805,6.029,13.3051,4.60072,2470.6,2022-8-19T03:29:50Z
2022-08-19T01:31:04Z,42.805,6.029,13.3065,4.60074,2470.577,2022-8-19T03:32:53Z
2022-08-19T01:34:07Z,42.805,6.029,13.3054,4.60080,2470.53,2022-8-19T03:35:57Z
2022-08-19T01:37:10Z,42.805,6.029,13.3063,4.60078,2470.591,2022-8-19T03:39:00Z
2022-08-19T01:40:13Z,42.805,6.029,13.3037,4.60081,2470.6,2022-8-19T03:42:03Z
2022-08-19T01:43:16Z,42.805,6.029,13.3052,4.60079,2470.591,2022-8-19T03:45:06Z
2022-08-19T01:46:19Z,42.805,6.029,13.3058,4.60081,2470.553,2022-8-19T03:48:09Z
2022-08-19T01:49:23Z,42.805,6.029,13.3062,4.60082,2470.6,2022-8-19T03:51:12Z
2022-08-19T01:52:26Z,42.805,6.029,13.3056,4.60081,2470.567,2022-8-19T03:54:15Z
2022-08-19T01:55:29Z,42.805,6.029,13.3056,4.60087,2470.553,2022-8-19T03:57:18Z
2022-08-19T01:58:32Z,42.805,6.029,13.3041,4.60079,2470.6,2022-8-19T04:00:21Z
2022-08-19T02:01:35Z,42.805,6.029,13.3059,4.60089,2470.553,2022-8-19T04:03:25Z
2022-08-19T02:04:38Z,42.805,6.029,13.3058,4.60081,2470.6,2022-8-19T04:06:28Z
2022-08-19T02:07:41Z,42.805,6.029,13.3055,4.60087,2470.591,2022-8-19T04:09:31Z
2022-08-19T02:10:44Z,42.805,6.029,13.3058,4.60085,2470.577,2022-8-19T04:12:34Z
2022-08-19T02:13:47Z,42.805,6.029,13.3063,4.60077,2470.6,2022-8-19T04:15:37Z
2022-08-19T02:16:51Z,42.805,6.029,13.3061,4.60072,2470.577,2022-8-19T04:18:40Z
2022-08-19T02:19:54Z,42.805,6.029,13.3056,4.60089,2470.553,2022-8-19T04:21:43Z
2022-08-19T02:22:57Z,42.805,6.029,13.3046,4.60081,2470.577,2022-8-19T04:24:46Z
2022-08-19T02:26:00Z,42.805,6.029,13.3054,4.60077,2470.553,2022-8-19T04:27:50Z
2022-08-19T02:29:03Z,42.805,6.029,13.3067,4.60093,2470.567,2022-8-19T04:30:53Z
2022-08-19T02:32:06Z,42.805,6.029,13.3042,4.60079,2470.577,2022-8-19T04:33:56Z
2022-08-19T02:35:09Z,42.805,6.029,13.3041,4.60069,2470.591,2022-8-19T04:36:59Z
2022-08-19T02:38:12Z,42.805,6.029,13.3045,4.60091,2470.6,2022-8-19T04:40:02Z
2022-08-19T02:41:16Z,42.805,6.029,13.3052,4.60084,2470.591,2022-8-19T04:43:05Z
2022-08-19T02:44:19Z,42.805,6.029,13.3048,4.60084,2470.553,2022-8-19T04:46:08Z
2022-08-19T02:47:22Z,42.805,6.029,13.3042,4.60074,2470.591,2022-8-19T04:49:11Z
2022-08-19T02:50:25Z,42.805,6.029,13.3050,4.60076,2470.6,2022-8-19T04:52:15Z
2022-08-19T02:53:28Z,42.805,6.029,13.3043,4.60072,2470.553,2022-8-19T04:55:18Z
2022-08-19T02:56:31Z,42.805,6.029,13.3045,4.60076,2470.577,2022-8-19T04:58:21Z
2022-08-19T02:59:34Z,42.805,6.029,13.3050,4.60072,2470.53,2022-8-19T05:01:24Z
2022-08-19T03:02:37Z,42.805,6.029,13.3032,4.60072,2470.591,2022-8-19T05:04:27Z
2022-08-19T03:05:40Z,42.805,6.029,13.3046,4.60081,2470.553,2022-8-19T05:07:30Z
2022-08-19T03:08:44Z,42.805,6.029,13.3049,4.60080,2470.553,2022-8-19T05:10:33Z
2022-08-19T03:11:47Z,42.805,6.029,13.3055,4.60063,2470.567,2022-8-19T05:13:36Z
2022-08-19T03:14:50Z,42.805,6.029,13.3047,4.60070,2470.53,2022-8-19T05:16:39Z
2022-08-19T03:17:53Z,42.805,6.029,13.3043,4.60072,2470.53,2022-8-19T05:19:43Z
2022-08-19T03:20:56Z,42.805,6.029,13.3043,4.60075,2470.591,2022-8-19T05:22:46Z
2022-08-19T03:23:59Z,42.805,6.029,13.3050,4.60079,2470.507,2022-8-19T05:25:49Z
2022-08-19T03:27:02Z,42.805,6.029,13.3036,4.60072,2470.567,2022-8-19T05:28:52Z
2022-08-19T03:30:05Z,42.805,6.029,13.3044,4.60070,2470.507,2022-8-19T05:31:55Z
2022-08-19T03:33:09Z,42.805,6.029,13.3045,4.60081,2470.544,2022-8-19T05:34:58Z
2022-08-19T03:36:12Z,42.805,6.029,13.3051,4.60073,2470.567,2022-8-19T05:38:01Z
2022-08-19T03:39:15Z,42.805,6.029,13.3049,4.60078,2470.544,2022-8-19T05:41:04Z
2022-08-19T03:42:18Z,42.805,6.029,13.3046,4.60074,2470.507,2022-8-19T05:44:08Z
2022-08-19T03:45:21Z,42.805,6.029,13.3057,4.60072,2470.53,2022-8-19T05:47:11Z
2022-08-19T03:48:24Z,42.805,6.029,13.3046,4.60072,2470.53,2022-8-19T05:50:14Z
2022-08-19T03:51:27Z,42.805,6.029,13.3058,4.60067,2470.544,2022-8-19T05:53:17Z
2022-08-19T03:54:30Z,42.805,6.029,13.3050,4.60074,2470.53,2022-8-19T05:56:20Z
2022-08-19T03:57:34Z,42.805,6.029,13.3048,4.60064,2470.544,2022-8-19T05:59:23Z
2022-08-19T04:00:37Z,42.805,6.029,13.3039,4.60073,2470.507,2022-8-19T06:02:26Z
2022-08-19T04:03:40Z,42.805,6.029,13.3042,4.60077,2470.497,2022-8-19T06:05:29Z
2022-08-19T04:06:43Z,42.805,6.029,13.3046,4.60080,2470.53,2022-8-19T06:08:33Z
2022-08-19T04:09:46Z,42.805,6.029,13.3046,4.60069,2470.53,2022-8-19T06:11:36Z
2022-08-19T04:12:49Z,42.805,6.029,13.3047,4.60079,2470.544,2022-8-19T06:14:39Z
2022-08-19T04:15:52Z,42.805,6.029,13.3048,4.60084,2470.507,2022-8-19T06:17:42Z
2022-08-19T04:18:55Z,42.805,6.029,13.3054,4.60075,2470.52,2022-8-19T06:20:45Z
2022-08-19T04:21:59Z,42.805,6.029,13.3053,4.60069,2470.507,2022-8-19T06:23:48Z
2022-08-19T04:25:02Z,42.805,6.029,13.3055,4.60072,2470.53,2022-8-19T06:26:51Z
2022-08-19T04:28:05Z,42.805,6.029,13.3061,4.60075,2470.507,2022-8-19T06:29:54Z
2022-08-19T04:31:08Z,42.805,6.029,13.3043,4.60072,2470.507,2022-8-19T06:32:57Z
2022-08-19T04:34:11Z,42.805,6.029,13.3043,4.60069,2470.544,2022-8-19T06:36:01Z
2022-08-19T04:37:14Z,42.805,6.029,13.3047,4.60069,2470.53,2022-8-19T06:39:04Z
2022-08-19T04:40:17Z,42.805,6.029,13.3052,4.60070,2470.483,2022-8-19T06:42:07Z
2022-08-19T04:43:20Z,42.805,6.029,13.3051,4.60064,2470.53,2022-8-19T06:45:10Z
2022-08-19T04:46:23Z,42.805,6.029,13.3045,4.60074,2470.53,2022-8-19T06:48:13Z
2022-08-19T04:49:27Z,42.805,6.029,13.3046,4.60081,2470.507,2022-8-19T06:51:16Z
2022-08-19T04:52:30Z,42.805,6.029,13.3044,4.60073,2470.507,2022-8-19T06:54:19Z
2022-08-19T04:55:33Z,42.805,6.029,13.3055,4.60077,2470.553,2022-8-19T06:57:22Z
2022-08-19T04:58:36Z,42.805,6.029,13.3048,4.60084,2470.544,2022-8-19T07:00:26Z
2022-08-19T05:01:39Z,42.805,6.029,13.3043,4.60065,2470.52,2022-8-19T07:03:29Z
2022-08-19T05:04:42Z,42.805,6.029,13.3029,4.60074,2470.53,2022-8-19T07:06:32Z
2022-08-19T05:07:45Z,42.805,6.029,13.3043,4.60070,2470.52,2022-8-19T07:09:35Z
2022-08-19T05:10:48Z,42.805,6.029,13.3041,4.60062,2470.52,2022-8-19T07:12:38Z
2022-08-19T05:13:52Z,42.805,6.029,13.3034,4.60069,2470.497,2022-8-19T07:15:41Z
2022-08-19T05:16:55Z,42.805,6.029,13.3044,4.60074,2470.544,2022-8-19T07:18:44Z
2022-08-19T05:19:58Z,42.805,6.029,13.3038,4.60076,2470.52,2022-8-19T07:21:47Z
2022-08-19T05:23:01Z,42.805,6.029,13.3054,4.60077,2470.52,2022-8-19T07:24:51Z
2022-08-19T05:26:04Z,42.805,6.029,13.3054,4.60077,2470.544,2022-8-19T07:27:54Z
2022-08-19T05:29:07Z,42.805,6.029,13.3041,4.60076,2470.52,2022-8-19T07:30:57Z
2022-08-19T05:32:10Z,42.805,6.029,13.3043,4.60074,2470.507,2022-8-19T07:34:00Z
2022-08-19T05:35:13Z,42.805,6.029,13.3034,4.60081,2470.483,2022-8-19T07:37:03Z
2022-08-19T05:38:16Z,42.805,6.029,13.3041,4.60091,2470.507,2022-8-19T07:40:06Z
2022-08-19T05:41:20Z,42.805,6.029,13.3040,4.60070,2470.52,2022-8-19T07:43:09Z
2022-08-19T05:44:23Z,42.805,6.029,13.3037,4.60072,2470.497,2022-8-19T07:46:12Z
2022-08-19T05:47:26Z,42.805,6.029,13.3045,4.60076,2470.483,2022-8-19T07:49:16Z
2022-08-19T05:50:29Z,42.805,6.029,13.3036,4.60069,2470.497,2022-8-19T07:52:19Z
2022-08-19T05:53:32Z,42.805,6.029,13.3050,4.60077,2470.497,2022-8-19T07:55:22Z
2022-08-19T05:56:35Z,42.805,6.029,13.3045,4.60069,2470.497,2022-8-19T07:58:25Z
2022-08-19T05:59:38Z,42.805,6.029,13.3033,4.60072,2470.52,2022-8-19T08:01:28Z
2022-08-19T06:02:41Z,42.805,6.029,13.3048,4.60079,2470.52,2022-8-19T08:04:31Z
2022-08-19T06:05:45Z,42.805,6.029,13.3039,4.60079,2470.507,2022-8-19T08:07:34Z
2022-08-19T06:08:48Z,42.805,6.029,13.3048,4.60067,2470.52,2022-8-19T08:10:37Z
2022-08-19T06:11:51Z,42.805,6.029,13.3042,4.60073,2470.52,2022-8-19T08:13:40Z
2022-08-19T06:14:54Z,42.805,6.029,13.3040,4.60075,2470.483,2022-8-19T08:16:44Z
2022-08-19T06:17:57Z,42.805,6.029,13.3041,4.60070,2470.507,2022-8-19T08:19:47Z
2022-08-19T06:21:00Z,42.805,6.029,13.3034,4.60072,2470.483,2022-8-19T08:22:50Z
2022-08-19T06:24:03Z,42.805,6.029,13.3032,4.60069,2470.52,2022-8-19T08:25:53Z
2022-08-19T06:27:06Z,42.805,6.029,13.3041,4.60065,2470.507,2022-8-19T08:28:56Z
2022-08-19T06:30:10Z,42.805,6.029,13.3040,4.60076,2470.497,2022-8-19T08:31:59Z
2022-08-19T06:33:13Z,42.805,6.029,13.3034,4.60065,2470.507,2022-8-19T08:35:02Z
2022-08-19T06:36:16Z,42.805,6.029,13.3035,4.60067,2470.507,2022-8-19T08:38:05Z
2022-08-19T06:39:19Z,42.805,6.029,13.3040,4.60075,2470.507,2022-8-19T08:41:09Z
2022-08-19T06:42:22Z,42.805,6.029,13.3056,4.60075,2470.483,2022-8-19T08:44:12Z
2022-08-19T06:45:25Z,42.805,6.029,13.3037,4.60077,2470.497,2022-8-19T08:47:15Z
2022-08-19T06:48:28Z,42.805,6.029,13.3055,4.60074,2470.507,2022-8-19T08:50:18Z
2022-08-19T06:51:31Z,42.805,6.029,13.3040,4.60063,2470.507,2022-8-19T08:53:21Z
2022-08-19T06:54:35Z,42.805,6.029,13.3044,4.60072,2470.507,2022-8-19T08:56:24Z
2022-08-19T06:57:38Z,42.805,6.029,13.3035,4.60077,2470.52,2022-8-19T08:59:27Z
2022-08-19T07:00:41Z,42.805,6.029,13.3051,4.60081,2470.53,2022-8-19T09:02:30Z
2022-08-19T07:03:44Z,42.805,6.029,13.3041,4.60079,2470.507,2022-8-19T09:05:34Z
2022-08-19T07:06:47Z,42.805,6.029,13.3041,4.60084,2470.474,2022-8-19T09:08:37Z
2022-08-19T07:09:50Z,42.805,6.029,13.3026,4.60072,2470.507,2022-8-19T09:11:40Z
2022-08-19T07:12:53Z,42.805,6.029,13.3048,4.60067,2470.53,2022-8-19T09:14:43Z
2022-08-19T07:15:56Z,42.805,6.029,13.3036,4.60079,2470.507,2022-8-19T09:17:46Z
2022-08-19T07:18:59Z,42.805,6.029,13.3032,4.60089,2470.52,2022-8-19T09:20:49Z
2022-08-19T07:22:03Z,42.805,6.029,13.3035,4.60067,2470.507,2022-8-19T09:23:52Z
2022-08-19T07:25:06Z,42.805,6.029,13.3034,4.60064,2470.497,2022-8-19T09:26:55Z
2022-08-19T07:28:09Z,42.805,6.029,13.3031,4.60069,2470.52,2022-8-19T09:29:59Z
2022-08-19T07:31:12Z,42.805,6.029,13.3036,4.60075,2470.507,2022-8-19T09:33:02Z
2022-08-19T07:34:15Z,42.805,6.029,13.3043,4.60096,2470.507,2022-8-19T09:36:05Z
2022-08-19T07:37:18Z,42.805,6.029,13.3041,4.60081,2470.567,2022-8-19T09:39:08Z
2022-08-19T07:40:21Z,42.805,6.029,13.3040,4.60071,2470.52,2022-8-19T09:42:11Z
2022-08-19T07:43:24Z,42.805,6.029,13.3049,4.60071,2470.497,2022-8-19T09:45:14Z
2022-08-19T07:46:28Z,42.805,6.029,13.3043,4.60074,2470.53,2022-8-19T09:48:17Z
2022-08-19T07:49:31Z,42.805,6.029,13.3039,4.60074,2470.544,2022-8-19T09:51:20Z
2022-08-19T07:52:34Z,42.805,6.029,13.3037,4.60064,2470.507,2022-8-19T09:54:24Z
2022-08-19T07:55:37Z,42.805,6.029,13.3047,4.60072,2470.544,2022-8-19T09:57:27Z
2022-08-19T07:58:40Z,42.805,6.029,13.3038,4.60074,2470.544,2022-8-19T10:00:30Z
2022-08-19T08:01:43Z,42.805,6.029,13.3038,4.60075,2470.52,2022-8-19T10:03:33Z
2022-08-19T08:04:46Z,42.805,6.029,13.3045,4.60087,2470.52,2022-8-19T10:06:36Z
2022-08-19T08:07:49Z,42.805,6.029,13.3052,4.60077,2470.544,2022-8-19T10:09:39Z
2022-08-19T08:10:53Z,42.805,6.029,13.3046,4.60084,2470.483,2022-8-19T10:12:42Z
2022-08-19T08:13:56Z,42.805,6.029,13.3051,4.60080,2470.474,2022-8-19T10:15:45Z
2022-08-19T08:16:59Z,42.805,6.029,13.3056,4.60082,2470.483,2022-8-19T10:18:49Z
2022-08-19T08:20:02Z,42.805,6.029,13.3045,4.60073,2470.483,2022-8-19T10:21:52Z
2022-08-19T08:23:05Z,42.805,6.029,13.3045,4.60077,2470.52,2022-8-19T10:24:55Z
2022-08-19T08:26:08Z,42.805,6.029,13.3046,4.60087,2470.497,2022-8-19T10:27:58Z
2022-08-19T08:29:11Z,42.805,6.029,13.3052,4.60079,2470.507,2022-8-19T10:31:01Z
2022-08-19T08:32:14Z,42.805,6.029,13.3067,4.60082,2470.53,2022-8-19T10:34:04Z
2022-08-19T08:35:18Z,42.805,6.029,13.3051,4.60089,2470.497,2022-8-19T10:37:07Z
2022-08-19T08:38:21Z,42.805,6.029,13.3036,4.60087,2470.52,2022-8-19T10:40:10Z
2022-08-19T08:41:24Z,42.805,6.029,13.3021,4.60086,2470.544,2022-8-19T10:43:14Z
2022-08-19T08:44:27Z,42.805,6.029,13.3022,4.60108,2470.53,2022-8-19T10:46:17Z
2022-08-19T08:47:30Z,42.805,6.029,13.3053,4.60093,2470.53,2022-8-19T10:49:20Z
2022-08-19T08:50:33Z,42.805,6.029,13.3082,4.60103,2470.53,2022-8-19T10:52:23Z
2022-08-19T08:53:36Z,42.805,6.029,13.3042,4.60102,2470.507,2022-8-19T10:55:26Z
2022-08-19T08:56:39Z,42.805,6.029,13.3026,4.60129,2470.53,2022-8-19T10:58:29Z
2022-08-19T08:59:43Z,42.805,6.029,13.3017,4.60107,2470.544,2022-8-19T11:01:32Z
2022-08-19T09:02:46Z,42.805,6.029,13.3014,4.60109,2470.567,2022-8-19T11:04:35Z
2022-08-19T09:05:49Z,42.805,6.029,13.3017,4.60087,2470.567,2022-8-19T11:07:39Z
2022-08-19T09:08:52Z,42.805,6.029,13.3018,4.60113,2470.507,2022-8-19T11:10:42Z
2022-08-19T09:11:55Z,42.805,6.029,13.3024,4.60100,2470.53,2022-8-19T11:13:45Z
2022-08-19T09:14:58Z,42.805,6.029,13.3021,4.60111,2470.53,2022-8-19T11:16:48Z
2022-08-19T09:18:01Z,42.805,6.029,13.3075,4.60106,2470.507,2022-8-19T11:19:51Z
2022-08-19T09:21:04Z,42.805,6.029,13.3023,4.60098,2470.53,2022-8-19T11:22:54Z
2022-08-19T09:24:08Z,42.805,6.029,13.3020,4.60096,2470.553,2022-8-19T11:25:57Z
2022-08-19T09:27:11Z,42.805,6.029,13.3024,4.60093,2470.567,2022-8-19T11:29:00Z
2022-08-19T09:30:14Z,42.805,6.029,13.3020,4.60123,2470.544,2022-8-19T11:32:04Z
2022-08-19T09:33:17Z,42.805,6.029,13.3019,4.60098,2470.553,2022-8-19T11:35:07Z
2022-08-19T09:36:20Z,42.805,6.029,13.3013,4.60087,2470.567,2022-8-19T11:38:10Z
2022-08-19T09:39:23Z,42.805,6.029,13.3015,4.60091,2470.53,2022-8-19T11:41:13Z
2022-08-19T09:42:26Z,42.805,6.029,13.3011,4.60108,2470.53,2022-8-19T11:44:16Z
2022-08-19T09:45:30Z,42.805,6.029,13.3015,4.60087,2470.553,2022-8-19T11:47:19Z
2022-08-19T09:48:33Z,42.805,6.029,13.3017,4.60082,2470.577,2022-8-19T11:50:22Z
2022-08-19T09:51:36Z,42.805,6.029,13.3042,4.60087,2470.6,2022-8-19T11:53:25Z
2022-08-19T09:54:39Z,42.805,6.029,13.3070,4.60132,2470.553,2022-8-19T11:56:29Z
2022-08-19T09:57:42Z,42.805,6.029,13.3022,4.60137,2470.577,2022-8-19T11:59:32Z
2022-08-19T10:00:45Z,42.805,6.029,13.3021,4.60135,2470.577,2022-8-19T12:02:35Z
2022-08-19T10:03:48Z,42.805,6.029,13.3019,4.60109,2470.544,2022-8-19T12:05:38Z
2022-08-19T10:06:51Z,42.805,6.029,13.3014,4.60084,2470.591,2022-8-19T12:08:41Z
2022-08-19T10:09:54Z,42.805,6.029,13.3017,4.60069,2470.553,2022-8-19T12:11:44Z
2022-08-19T10:12:58Z,42.805,6.029,13.3014,4.60077,2470.577,2022-8-19T12:14:47Z
2022-08-19T10:16:01Z,42.805,6.029,13.3012,4.60067,2470.567,2022-8-19T12:17:50Z
2022-08-19T10:19:04Z,42.805,6.029,13.3011,4.60062,2470.577,2022-8-19T12:20:54Z
2022-08-19T10:22:07Z,42.805,6.029,13.3015,4.60061,2470.567,2022-8-19T12:23:57Z
2022-08-19T10:25:10Z,42.805,6.029,13.3012,4.60071,2470.577,2022-8-19T12:27:00Z
2022-08-19T10:28:13Z,42.805,6.029,13.3014,4.60067,2470.577,2022-8-19T12:30:03Z
2022-08-19T10:31:16Z,42.805,6.029,13.3012,4.60064,2470.553,2022-8-19T12:33:06Z
2022-08-19T10:34:20Z,42.805,6.029,13.3014,4.60062,2470.577,2022-8-19T12:36:09Z
2022-08-19T10:37:23Z,42.805,6.029,13.3015,4.60062,2470.577,2022-8-19T12:39:12Z
2022-08-19T10:40:26Z,42.805,6.029,13.3014,4.60072,2470.591,2022-8-19T12:42:15Z
2022-08-19T10:43:29Z,42.805,6.029,13.3014,4.60057,2470.577,2022-8-19T12:45:19Z
2022-08-19T10:46:32Z,42.805,6.029,13.3013,4.60071,2470.553,2022-8-19T12:48:22Z
2022-08-19T10:49:35Z,42.805,6.029,13.3014,4.60057,2470.577,2022-8-19T12:51:25Z
2022-08-19T10:52:38Z,42.805,6.029,13.3009,4.60059,2470.567,2022-8-19T12:54:28Z
2022-08-19T10:55:41Z,42.805,6.029,13.3013,4.60058,2470.52,2022-8-19T12:57:31Z
2022-08-19T10:58:45Z,42.805,6.029,13.3009,4.60062,2470.591,2022-8-19T13:00:34Z
2022-08-19T11:01:48Z,42.805,6.029,13.3012,4.60066,2470.539,2022-8-19T13:03:37Z
2022-08-19T11:04:51Z,42.805,6.029,13.3014,4.60067,2470.567,2022-8-19T13:06:40Z
2022-08-19T11:07:54Z,42.805,6.029,13.3009,4.60069,2470.553,2022-8-19T13:09:44Z
2022-08-19T11:10:57Z,42.805,6.029,13.3014,4.60063,2470.577,2022-8-19T13:12:47Z
2022-08-19T11:14:00Z,42.805,6.029,13.3011,4.60061,2470.577,2022-8-19T13:15:50Z
2022-08-19T11:17:03Z,42.805,6.029,13.3015,4.60069,2470.6,2022-8-19T13:18:53Z
2022-08-19T11:20:06Z,42.805,6.029,13.3010,4.60069,2470.624,2022-8-19T13:21:56Z
2022-08-19T11:23:10Z,42.805,6.029,13.3011,4.60066,2470.567,2022-8-19T13:24:59Z
2022-08-19T11:26:13Z,42.805,6.029,13.3012,4.60067,2470.553,2022-8-19T13:28:02Z
2022-08-19T11:29:16Z,42.805,6.029,13.3013,4.60075,2470.577,2022-8-19T13:31:05Z
2022-08-19T11:32:19Z,42.805,6.029,13.3013,4.60063,2470.591,2022-8-19T13:34:09Z
2022-08-19T11:35:22Z,42.805,6.029,13.3012,4.60072,2470.591,2022-8-19T13:37:12Z
2022-08-19T11:38:25Z,42.805,6.029,13.3014,4.60068,2470.6,2022-8-19T13:40:15Z
2022-08-19T11:41:28Z,42.805,6.029,13.3009,4.60057,2470.614,2022-8-19T13:43:18Z
2022-08-19T11:44:31Z,42.805,6.029,13.3013,4.60061,2470.591,2022-8-19T13:46:21Z
2022-08-19T11:47:35Z,42.805,6.029,13.3012,4.60060,2470.577,2022-8-19T13:49:24Z
2022-08-19T11:50:38Z,42.805,6.029,13.3014,4.60058,2470.563,2022-8-19T13:52:27Z
2022-08-19T11:53:41Z,42.805,6.029,13.3011,4.60059,2470.577,2022-8-19T13:55:30Z
2022-08-19T11:56:44Z,42.805,6.029,13.3007,4.60059,2470.553,2022-8-19T13:58:34Z
2022-08-19T11:59:47Z,42.805,6.029,13.3011,4.60057,2470.6,2022-8-19T14:01:37Z
2022-08-19T12:02:50Z,42.805,6.029,13.3011,4.60064,2470.6,2022-8-19T14:04:40Z
2022-08-19T12:05:53Z,42.805,6.029,13.3009,4.60064,2470.624,2022-8-19T14:07:43Z
2022-08-19T12:08:56Z,42.805,6.029,13.3005,4.60059,2470.624,2022-8-19T14:10:46Z
2022-08-19T12:12:00Z,42.805,6.029,13.3007,4.60061,2470.567,2022-8-19T14:13:49Z
2022-08-19T12:15:03Z,42.805,6.029,13.3012,4.60065,2470.6,2022-8-19T14:16:52Z
2022-08-19T12:18:06Z,42.805,6.029,13.3009,4.60065,2470.6,2022-8-19T14:19:55Z
2022-08-19T12:21:09Z,42.805,6.029,13.3011,4.60066,2470.614,2022-8-19T14:22:59Z
2022-08-19T12:24:12Z,42.805,6.029,13.3006,4.60069,2470.591,2022-8-19T14:26:02Z
2022-08-19T12:27:15Z,42.805,6.029,13.3008,4.60069,2470.614,2022-8-19T14:29:05Z
2022-08-19T12:30:18Z,42.805,6.029,13.3009,4.60067,2470.614,2022-8-19T14:32:08Z
2022-08-19T12:33:21Z,42.805,6.029,13.3007,4.60070,2470.6,2022-8-19T14:35:11Z
2022-08-19T12:36:25Z,42.805,6.029,13.3008,4.60063,2470.614,2022-8-19T14:38:14Z
2022-08-19T12:39:28Z,42.805,6.029,13.3004,4.60069,2470.6,2022-8-19T14:41:17Z
2022-08-19T12:42:31Z,42.805,6.029,13.3009,4.60072,2470.577,2022-8-19T14:44:20Z
2022-08-19T12:45:34Z,42.805,6.029,13.3009,4.60083,2470.577,2022-8-19T14:47:24Z
2022-08-19T12:48:37Z,42.805,6.029,13.3011,4.60074,2470.577,2022-8-19T14:50:27Z
2022-08-19T12:51:40Z,42.805,6.029,13.3010,4.60082,2470.6,2022-8-19T14:53:30Z
2022-08-19T12:54:43Z,42.805,6.029,13.3011,4.60087,2470.6,2022-8-19T14:56:33Z
2022-08-19T12:57:46Z,42.805,6.029,13.3015,4.60092,2470.614,2022-8-19T14:59:36Z
2022-08-19T13:00:50Z,42.805,6.029,13.3015,4.60142,2470.591,2022-8-19T15:02:39Z
2022-08-19T13:03:53Z,42.805,6.029,13.3012,4.60104,2470.577,2022-8-19T15:05:42Z
2022-08-19T13:06:56Z,42.805,6.029,13.3014,4.60081,2470.577,2022-8-19T15:08:46Z
2022-08-19T13:09:59Z,42.805,6.029,13.3010,4.60097,2470.614,2022-8-19T15:11:49Z
2022-08-19T13:13:02Z,42.805,6.029,13.3011,4.60093,2470.614,2022-8-19T15:14:52Z
2022-08-19T13:16:05Z,42.805,6.029,13.3012,4.60117,2470.614,2022-8-19T15:17:55Z
2022-08-19T13:19:08Z,42.805,6.029,13.3013,4.60110,2470.577,2022-8-19T15:20:58Z
2022-08-19T13:22:11Z,42.805,6.029,13.3020,4.60124,2470.591,2022-8-19T15:24:01Z
2022-08-19T13:25:15Z,42.805,6.029,13.3014,4.60133,2470.577,2022-8-19T15:27:04Z
2022-08-19T13:28:18Z,42.805,6.029,13.3018,4.60120,2470.591,2022-8-19T15:30:07Z
2022-08-19T13:31:21Z,42.805,6.029,13.3036,4.60124,2470.577,2022-8-19T15:33:11Z
2022-08-19T13:34:24Z,42.805,6.029,13.3053,4.60137,2470.577,2022-8-19T15:36:14Z
2022-08-19T13:37:27Z,42.805,6.029,13.3089,4.60155,2470.567,2022-8-19T15:39:17Z
2022-08-19T13:40:30Z,42.805,6.029,13.3095,4.60155,2470.591,2022-8-19T15:42:20Z
2022-08-19T13:43:33Z,42.805,6.029,13.3083,4.60112,2470.614,2022-8-19T15:45:23Z
2022-08-19T13:46:36Z,42.805,6.029,13.3086,4.60119,2470.591,2022-8-19T15:48:26Z
2022-08-19T13:49:40Z,42.805,6.029,13.3086,4.60095,2470.577,2022-8-19T15:51:29Z
2022-08-19T13:52:43Z,42.805,6.029,13.3084,4.60088,2470.577,2022-8-19T15:54:32Z
2022-08-19T13:55:46Z,42.805,6.029,13.3088,4.60088,2470.577,2022-8-19T15:57:36Z
2022-08-19T13:58:49Z,42.805,6.029,13.3084,4.60084,2470.614,2022-8-19T16:00:39Z
2022-08-19T14:01:52Z,42.805,6.029,13.3084,4.60081,2470.567,2022-8-19T16:03:42Z
2022-08-19T14:04:55Z,42.805,6.029,13.3084,4.60085,2470.577,2022-8-19T16:06:45Z
2022-08-19T14:07:58Z,42.805,6.029,13.3082,4.60090,2470.591,2022-8-19T16:09:48Z
2022-08-19T14:11:01Z,42.805,6.029,13.3089,4.60085,2470.567,2022-8-19T16:12:51Z
2022-08-19T14:14:05Z,42.805,6.029,13.3091,4.60080,2470.591,2022-8-19T16:15:54Z
2022-08-19T14:17:08Z,42.805,6.029,13.3091,4.60082,2470.591,2022-8-19T16:18:57Z
2022-08-19T14:20:11Z,42.805,6.029,13.3091,4.60089,2470.614,2022-8-19T16:22:01Z
2022-08-19T14:23:14Z,42.805,6.029,13.3078,4.60074,2470.567,2022-8-19T16:25:04Z
2022-08-19T14:26:17Z,42.805,6.029,13.3085,4.60084,2470.591,2022-8-19T16:28:07Z
2022-08-19T14:29:20Z,42.805,6.029,13.3103,4.60090,2470.591,2022-8-19T16:31:10Z
2022-08-19T14:32:23Z,42.805,6.029,13.3105,4.60090,2470.553,2022-8-19T16:34:13Z
2022-08-19T14:35:26Z,42.805,6.029,13.3106,4.60106,2470.577,2022-8-19T16:37:16Z
2022-08-19T14:38:30Z,42.805,6.029,13.3096,4.60097,2470.591,2022-8-19T16:40:19Z
2022-08-19T14:41:33Z,42.805,6.029,13.3093,4.60103,2470.553,2022-8-19T16:43:22Z
2022-08-19T14:44:36Z,42.805,6.029,13.3090,4.60080,2470.614,2022-8-19T16:46:26Z
2022-08-19T14:47:39Z,42.805,6.029,13.3093,4.60072,2470.591,2022-8-19T16:49:29Z
2022-08-19T14:50:42Z,42.805,6.029,13.3073,4.60079,2470.591,2022-8-19T16:52:32Z
2022-08-19T14:53:45Z,42.805,6.029,13.3085,4.60092,2470.577,2022-8-19T16:55:35Z
2022-08-19T14:56:48Z,42.805,6.029,13.3090,4.60099,2470.591,2022-8-19T16:58:38Z
2022-08-19T14:59:52Z,42.805,6.029,13.3102,4.60155,2470.591,2022-8-19T17:01:41Z
2022-08-19T15:02:55Z,42.805,6.029,13.3092,4.60085,2470.567,2022-8-19T17:04:44Z
2022-08-19T15:05:58Z,42.805,6.029,13.3087,4.60125,2470.553,2022-8-19T17:07:47Z
2022-08-19T15:09:01Z,42.805,6.029,13.3093,4.60078,2470.591,2022-8-19T17:10:51Z
2022-08-19T15:12:04Z,42.805,6.029,13.3095,4.60112,2470.591,2022-8-19T17:13:54Z
2022-08-19T15:15:07Z,42.805,6.029,13.3081,4.60104,2470.577,2022-8-19T17:16:57Z